Regional Weather Roundup
Issued by NWS

Home | Current Version | Previous Version | Graphics & Text | Print | Product List | Glossary On
Versions: 1 2 3 4 5 6 7 8 9 10 11 12 13 14 15 16 17 18 19 20 21 22 23 24 25 26 27 28 29 30 31 32 33 34 35 36 37 38 39 40 41 42 43 44 45 46 47 48 49 50
681
ASUS43 KDTX 180501
RWRMI
MICHIGAN HOURLY REGIONAL WEATHER ROUNDUP
NATIONAL WEATHER SERVICE DETROIT/PONTIAC MI
1200 AM EST SUN FEB 18 2018

NOTE: "FAIR" INDICATES FEW OR NO CLOUDS BELOW 12,000 FEET WITH NO
SIGNIFICANT WEATHER AND/OR OBSTRUCTION TO VISIBILITY.

MIZ047>049-052>055-059>063-066>070-074>076-081>083-180600-
SOUTHEAST LOWER MICHIGAN

CITY           SKY/WX    TMP DP  RH WIND       PRES   REMARKS
ADRIAN         CLOUDY    30  29  96 CALM      30.03S FOG
ANN ARBOR      CLOUDY    26  25  96 SW6       30.02R WCI  19
BAD AXE        FLURRIES  28  26  93 SW10G17   29.96S WCI  18
CARO           MOCLDY    28  26  93 SW8       29.98R WCI  19
DETROIT CITY   MOCLDY    29  27  92 W3        30.02S
DETROIT        FAIR      29  27  92 SW8       30.03R WCI  21
FLINT          FAIR      25  24  96 SW5       30.01R FOG     WCI  19
GROSSE ILE     FAIR      30  28  93 CALM      30.02R FOG
HILLSDALE      CLOUDY    30  28  93 W6        30.01R FOG     WCI  24
HOWELL         FAIR      26  26 100 W3        30.01R FOG

CITY           SKY/WX    TMP DP  RH WIND       PRES   REMARKS
JACKSON        MOCLDY    28  26  92 SW6       30.02R WCI  22
LAMBERTVILLE   CLOUDY    31  30  94 CALM      30.03R FOG
LANSING        CLOUDY    27  26  96 W5        30.03R WCI  22
LAPEER         CLOUDY    27  27  97 W5        30.00R WCI  22
MASON          CLOUDY    29  25  85 CALM      30.02R FOG
MONROE         CLOUDY    30  28  94 W8        30.03R FOG     WCI  22
MT. CLEMENS    FLURRIES  29  29 100 SW3       30.00S
PONTIAC        FAIR      25  24  96 W5        29.99R WCI  19
PORT HOPE        N/A     28  25  88 SW12      29.94S WCI  18
PORT HURON     LGT SNOW  28  27  93 SW3       30.01S
TRI CITIES     CLOUDY    29  24  82 SW12      29.99R WCI  19
MIDLAND        CLOUDY    31  26  82 SW6       29.97S WCI  25
TROY           LGT SNOW  31  28  90 W3        30.03R
SAGINAW HB     CLOUDY    28  27  93 SW12      29.99S WCI  18
$$
MIZ043>046-050>051-056>058-064>065-071>073-077>080-180600-
SOUTHWEST LOWER MICHIGAN

CITY           SKY/WX    TMP DP  RH WIND       PRES   REMARKS
BATTLE CREEK   CLOUDY    31  28  89 W8        30.03R WCI  23
BENTON HARBOR  CLOUDY    31  24  75 W15G22    30.10R WCI  20
BIG RAPIDS     CLOUDY    29  23  78 W13G24    29.98R WCI  19
COLDWATER      CLOUDY    31  31 100 W6        30.04R FOG     WCI  25
FREMONT        CLOUDY    30  22  73 W8        30.03R WCI  22
HOLLAND        MOCLDY    32  26  78 W13G21    30.06R WCI  22
GRAND RAPIDS   CLOUDY    31  27  85 W12       30.03R FOG     WCI  22
IONIA          CLOUDY    28  28  98 SW7       30.01R WCI  21
KALAMAZOO      CLOUDY    32  29  88 W9        30.05R WCI  24
LUDINGTON      CLOUDY    29  24  81 W8G16     30.03R WCI  21
MARSHALL       CLOUDY    29  28  98 W6        30.03R WCI  23
MOUNT PLEASANT CLOUDY    31  26  80 W12G17    29.98R WCI  22
MUSKEGON       CLOUDY    31  24  75 W13       30.06R WCI  21
SOUTH HAVEN    CLOUDY    32  27  80 W10G17    30.08R WCI  24
$$
MIZ016>042-180600-
NORTHERN LOWER MICHIGAN

CITY           SKY/WX    TMP DP  RH WIND       PRES   REMARKS
ALPENA         CLOUDY    29  23  78 W6        29.92R WCI  23
BEAVER ISLAND  CLOUDY    28  23  82 W9        29.94R WCI  19
BELLAIRE       CLOUDY    29  26  87 SW6       29.97R WCI  23
CADILLAC       CLOUDY    26  24  91 W13G23    29.94R WCI  15
CHARLEVOIX     CLOUDY    30  25  83 W20       29.97R WCI  17
FRANKFORT      MOCLDY    31  25  78 W9        29.99R WCI  23
GAYLORD        CLOUDY    26  25  96 W20G28    29.89R WCI  12
GRAYLING       CLOUDY    27  24  89 W16G22    29.91R WCI  15
HARBOR SPRINGS CLOUDY    28  26  91 W7        29.93R WCI  21
HOUGHTON LAKE  CLOUDY    27  24  89 W14G20    29.94R WCI  16
MANISTEE       CLOUDY    29  24  82 W12       30.01R WCI  19
OSCODA         CLOUDY    27  22  80 W10       29.94R WCI  18
PELLSTON       CLOUDY    28  23  81 W9        29.93R WCI  19
ROGERS CITY    CLOUDY    29  25  83 W9        29.92R WCI  21
TRAVERSE CITY  CLOUDY    30  23  75 SW6       29.97R WCI  24
$$
MIZ007>008-015-180600-
EASTERN UPPER MICHIGAN

CITY           SKY/WX    TMP DP  RH WIND       PRES   REMARKS
KINROSS        CLOUDY    23  20  88 W8        29.89R WCI  14
MACKINAC ISLAN CLOUDY    25  23  89 W10G18    29.91R WCI  15
NEWBERRY       MOCLDY    20  20  98 SW6       29.89R WCI  13
S. S. MARIE    CLOUDY    26  19  74 W9        29.87R WCI  17
MUNISING         N/A     24  19  81 VRB6      29.92R WCI  17
$$
MIZ004>006-011>014-085-180600-
CENTRAL UPPER MICHIGAN

CITY           SKY/WX    TMP DP  RH WIND       PRES   REMARKS
MANISTIQUE     CLOUDY    21  20  94 W6        29.93R WCI  13
MENOMINEE      FAIR      25  20  81 W8        29.99R WCI  16
SAWYER-GWINN   FAIR      21  12  67 W5        29.90R WCI  15
$$
MIZ001>003-009>011-084-180600-
WESTERN UPPER MICHIGAN

CITY           SKY/WX    TMP DP  RH WIND       PRES   REMARKS
IRON MOUNTAIN  FAIR      17  13  84 CALM      29.91R
HOUGHTON       FAIR      22   9  57 NW20      29.87R WCI   7
COPPER HARBOR    N/A     24  14  65 N13G22    29.88R WCI  12
IRONWOOD       FAIR      20  10  65 W13G21    29.95R WCI   7
$$

ABBREVIATIONS USED IN REMARKS
   TC - TEMPERATURE IN CELSIUS
  WCI - WIND CHILL INDEX
   HX - HEAT INDEX
  VSB - VISIBILITY





USA.gov is the U.S. government's official web portal to all federal, state and local government web resources and services.